TimeEST,TemperatureF,Dew PointF,Humidity,Sea Level PressureIn,VisibilityMPH,Wind Direction,Wind SpeedMPH,Gust SpeedMPH,PrecipitationIn,Events,Conditions,WindDirDegrees,DateUTC
12:17 AM,30.2,26.6,86,30.14,10.0,SSW,15.0,-,N/A,,Clear,200,2013-01-08 05:17:00
12:37 AM,30.2,26.6,86,30.14,10.0,SSW,11.5,17.3,N/A,,Clear,210,2013-01-08 05:37:00
12:57 AM,32.0,24.8,75,30.15,10.0,SSW,8.1,-,N/A,,Clear,210,2013-01-08 05:57:00
1:17 AM,32.0,24.8,75,30.15,10.0,SSW,8.1,-,N/A,,Clear,210,2013-01-08 06:17:00
1:38 AM,30.2,24.8,80,30.15,10.0,SSW,8.1,-,N/A,,Clear,210,2013-01-08 06:38:00
1:57 AM,30.2,24.8,80,30.15,10.0,SW,6.9,-,N/A,,Clear,220,2013-01-08 06:57:00
2:17 AM,30.2,24.8,80,30.15,10.0,SW,8.1,-,N/A,,Clear,220,2013-01-08 07:17:00
2:37 AM,30.2,24.8,80,30.16,10.0,SSW,8.1,-,N/A,,Clear,210,2013-01-08 07:37:00
2:57 AM,30.2,24.8,80,30.16,10.0,SSW,8.1,-,N/A,,Clear,210,2013-01-08 07:57:00
3:17 AM,30.2,24.8,80,30.16,10.0,SSW,6.9,-,N/A,,Clear,210,2013-01-08 08:17:00
3:37 AM,30.2,24.8,80,30.16,7.0,SSW,6.9,-,N/A,,Clear,210,2013-01-08 08:37:00
3:57 AM,30.2,24.8,80,30.16,10.0,SSW,5.8,-,N/A,,Clear,210,2013-01-08 08:57:00
4:18 AM,30.2,24.8,80,30.16,10.0,SW,4.6,-,N/A,,Clear,230,2013-01-08 09:18:00
4:37 AM,30.2,24.8,80,30.16,7.0,SW,6.9,-,N/A,,Clear,220,2013-01-08 09:37:00
4:57 AM,30.2,24.8,80,30.16,10.0,SSW,6.9,-,N/A,,Clear,210,2013-01-08 09:57:00
5:17 AM,30.2,23.0,75,30.16,10.0,SSW,5.8,-,N/A,,Clear,210,2013-01-08 10:17:00
5:37 AM,28.4,23.0,80,30.16,7.0,SSW,6.9,-,N/A,,Clear,210,2013-01-08 10:37:00
5:58 AM,28.4,23.0,80,30.16,7.0,SSW,5.8,-,N/A,,Clear,210,2013-01-08 10:58:00
6:17 AM,28.4,23.0,80,30.17,7.0,SW,5.8,-,N/A,,Clear,220,2013-01-08 11:17:00
6:37 AM,28.4,23.0,80,30.17,7.0,SSW,4.6,-,N/A,,Clear,210,2013-01-08 11:37:00
6:57 AM,28.4,23.0,80,30.18,7.0,SW,4.6,-,N/A,,Clear,220,2013-01-08 11:57:00
7:17 AM,28.4,23.0,80,30.18,7.0,SSW,3.5,-,N/A,,Clear,210,2013-01-08 12:17:00
7:38 AM,28.4,23.0,80,30.19,7.0,SSW,5.8,-,N/A,,Clear,210,2013-01-08 12:38:00
7:57 AM,26.6,23.0,86,30.19,5.0,SSW,5.8,-,N/A,,Haze,200,2013-01-08 12:57:00
8:17 AM,26.6,23.0,86,30.20,5.0,SSW,5.8,-,N/A,,Clear,200,2013-01-08 13:17:00
8:37 AM,26.6,23.0,86,30.21,5.0,SSW,4.6,-,N/A,,Clear,210,2013-01-08 13:37:00
8:57 AM,28.4,23.0,80,30.22,5.0,SSW,4.6,-,N/A,,Haze,210,2013-01-08 13:57:00
9:18 AM,28.4,23.0,80,30.22,5.0,SSW,5.8,-,N/A,,Haze,210,2013-01-08 14:18:00
9:37 AM,30.2,23.0,75,30.23,5.0,SSW,5.8,-,N/A,,Haze,210,2013-01-08 14:37:00
9:57 AM,30.2,24.8,80,30.23,5.0,SSW,9.2,-,N/A,,Haze,200,2013-01-08 14:57:00
10:17 AM,30.2,24.8,80,30.23,7.0,SSW,5.8,-,N/A,,Clear,210,2013-01-08 15:17:00
10:37 AM,32.0,24.8,75,30.23,7.0,SSW,6.9,-,N/A,,Clear,210,2013-01-08 15:37:00
10:57 AM,32.0,24.8,75,30.24,7.0,SW,5.8,-,N/A,,Clear,220,2013-01-08 15:57:00
11:17 AM,32.0,24.8,75,30.23,7.0,SSW,8.1,-,N/A,,Clear,200,2013-01-08 16:17:00
11:37 AM,33.8,24.8,70,30.22,7.0,SW,4.6,-,N/A,,Clear,220,2013-01-08 16:37:00
11:57 AM,33.8,24.8,70,30.22,7.0,SSW,6.9,-,N/A,,Clear,210,2013-01-08 16:57:00
12:17 PM,35.6,26.6,70,30.22,7.0,SSW,3.5,-,N/A,,Clear,210,2013-01-08 17:17:00
12:37 PM,35.6,26.6,70,30.22,7.0,South,6.9,-,N/A,,Clear,180,2013-01-08 17:37:00
12:57 PM,35.6,26.6,70,30.21,7.0,South,8.1,-,N/A,,Clear,190,2013-01-08 17:57:00
1:18 PM,35.6,26.6,70,30.21,7.0,South,11.5,-,N/A,,Clear,180,2013-01-08 18:18:00
1:37 PM,35.6,26.6,70,30.20,5.0,South,11.5,-,N/A,,Haze,180,2013-01-08 18:37:00
1:57 PM,35.6,26.6,70,30.20,7.0,South,9.2,-,N/A,,Clear,180,2013-01-08 18:57:00
2:18 PM,33.8,26.6,75,30.21,7.0,South,10.4,-,N/A,,Clear,180,2013-01-08 19:18:00
2:37 PM,33.8,26.6,75,30.21,7.0,South,8.1,-,N/A,,Clear,190,2013-01-08 19:37:00
2:57 PM,33.8,26.6,75,30.21,7.0,South,9.2,-,N/A,,Clear,180,2013-01-08 19:57:00
3:17 PM,33.8,28.4,81,30.22,7.0,South,6.9,-,N/A,,Clear,180,2013-01-08 20:17:00
3:37 PM,33.8,28.4,81,30.22,7.0,South,9.2,-,N/A,,Clear,190,2013-01-08 20:37:00
3:58 PM,33.8,28.4,81,30.22,7.0,South,8.1,-,N/A,,Clear,190,2013-01-08 20:58:00
4:17 PM,33.8,28.4,81,30.22,7.0,South,8.1,-,N/A,,Clear,180,2013-01-08 21:17:00
4:38 PM,33.8,28.4,81,30.22,7.0,South,6.9,-,N/A,,Clear,170,2013-01-08 21:38:00
4:57 PM,33.8,28.4,81,30.22,7.0,South,6.9,-,N/A,,Clear,170,2013-01-08 21:57:00
5:17 PM,33.8,26.6,75,30.22,7.0,South,6.9,-,N/A,,Clear,170,2013-01-08 22:17:00
5:37 PM,33.8,28.4,81,30.22,7.0,South,8.1,-,N/A,,Clear,180,2013-01-08 22:37:00
5:57 PM,32.0,28.4,87,30.23,7.0,South,8.1,-,N/A,,Clear,170,2013-01-08 22:57:00
6:18 PM,32.0,26.6,80,30.23,7.0,South,8.1,-,N/A,,Clear,170,2013-01-08 23:18:00
6:37 PM,32.0,26.6,80,30.23,7.0,South,8.1,-,N/A,,Clear,180,2013-01-08 23:37:00
6:57 PM,32.0,26.6,80,30.23,7.0,South,5.8,-,N/A,,Clear,180,2013-01-08 23:57:00
7:17 PM,32.0,26.6,80,30.23,7.0,South,6.9,-,N/A,,Clear,180,2013-01-09 00:17:00
7:37 PM,32.0,26.6,80,30.22,7.0,South,8.1,-,N/A,,Clear,180,2013-01-09 00:37:00
7:58 PM,32.0,26.6,80,30.22,7.0,South,8.1,-,N/A,,Clear,170,2013-01-09 00:58:00
8:17 PM,30.2,26.6,86,30.22,7.0,South,9.2,-,N/A,,Clear,180,2013-01-09 01:17:00
8:37 PM,30.2,26.6,86,30.22,7.0,South,6.9,-,N/A,,Clear,180,2013-01-09 01:37:00
8:57 PM,30.2,26.6,86,30.22,5.0,South,5.8,-,N/A,,Clear,180,2013-01-09 01:57:00
9:17 PM,28.4,24.8,86,30.21,5.0,South,5.8,-,N/A,,Clear,190,2013-01-09 02:17:00
9:37 PM,26.6,24.8,93,30.20,5.0,South,4.6,-,N/A,,Clear,190,2013-01-09 02:37:00
9:57 PM,28.4,24.8,86,30.19,5.0,Calm,Calm,-,N/A,,Clear,0,2013-01-09 02:57:00
10:17 PM,26.6,24.8,93,30.18,4.0,South,3.5,-,N/A,,Clear,180,2013-01-09 03:17:00
10:37 PM,28.4,26.6,93,30.19,5.0,South,3.5,-,N/A,,Clear,190,2013-01-09 03:37:00
10:57 PM,28.4,26.6,93,30.19,5.0,Calm,Calm,-,N/A,,Clear,0,2013-01-09 03:57:00
11:17 PM,23.0,21.2,93,30.19,4.0,Calm,Calm,-,N/A,,Clear,0,2013-01-09 04:17:00
11:37 PM,21.2,21.2,100,30.18,2.5,Calm,Calm,-,N/A,,Clear,0,2013-01-09 04:37:00
11:57 PM,19.4,19.4,100,30.18,2.0,Calm,Calm,-,N/A,,Clear,0,2013-01-09 04:57:00